[[{"header":{"parameterUnit":"m.s-1","parameterCategory":1,"la1":30.2991,"la2":30.254,"lo1":-89.0895,"lo2":-89.0444,"dx":0.0017,"dy":0.0017,"nx":28,"ny":28,"refTime":"2023-01-23T03:00:00:Z","depth":0,"parameterNumber":2,"parameterNumberName":"U-component_of_WINDS"},"data":[0,0,0,0,0,0,0,0,0,0,0,0,0,0,0,0,0,0,0,0,0,0,0,0,0,0,0,0,0,0,0,0,0,0,0,0,0,0,0,0,0,0,0,0,0,0,0,0,0,0,0,0,0,0,0,0,0,0,-1.5139,-1.5138,0,-1.5022,-1.5021,-1.502,-1.4903,-1.4901,-1.49,-1.4898,-1.4778,-1.4776,-1.4775,0,0,0,0,0,0,0,0,0,0,0,0,0,-1.5259,-1.5258,-1.5139,-1.5138,-1.5136,-1.5023,-1.5021,-1.5019,-1.4903,-1.4901,-1.4899,-1.4898,-1.4779,-1.4777,-1.4774,0,0,0,0,0,0,0,0,0,0,0,0,0,-1.5181,-1.5257,-1.5139,-1.5065,-1.5057,-1.5023,-1.5021,-1.5019,-1.4904,-1.4901,-1.4899,-1.4897,-1.4779,-1.4777,-1.4774,-1.4805,0,0,-1.4766,-1.4765,0,0,0,0,0,0,0,0,-1.5186,-1.5177,-1.5077,-1.507,-1.5061,-1.4975,-1.5019,-1.4947,-1.4904,-1.4962,-1.4898,-1.4896,-1.4845,-1.4837,-1.482,-1.4799,-1.4794,-1.4766,-1.4764,-1.4763,-1.4762,0,0,0,0,0,0,0,-1.5192,-1.5181,-1.5093,-1.5076,-1.5066,-1.5036,-1.5023,-1.5005,-1.4918,-1.4956,-1.4948,-1.4936,-1.484,-1.4823,-1.4817,-1.4792,-1.4766,-1.4764,-1.4762,-1.4761,-1.4789,-1.4791,0,0,0,0,0,0,-1.5209,-1.5187,-1.5096,-1.5089,-1.5119,-1.5036,-1.5021,-1.5005,-1.4918,-1.4902,-1.4938,-1.4931,-1.4829,-1.482,-1.4812,-1.4842,-1.4763,-1.4761,-1.4759,-1.4787,-1.479,-1.4792,0,0,0,0,0,0,-1.5212,-1.5202,-1.5101,-1.5136,-1.5121,-1.5036,-1.5019,-1.5004,-1.4986,-1.4904,-1.4887,-1.4936,-1.4827,-1.4816,-1.4807,-1.4836,-1.4759,-1.4757,-1.4784,-1.4788,-1.4791,-1.4902,0,0,0,0,0,0,-1.5216,-1.5203,-1.5215,-1.5137,-1.5119,-1.5099,-1.5021,-1.5003,-1.4982,-1.4972,-1.4898,-1.4883,-1.4824,-1.4812,-1.4805,-1.4831,-1.4755,-1.4781,-1.4786,-1.479,-1.4896,-1.4909,-1.4921,0,0,0,0,0,-1.522,-1.525,-1.5216,-1.5206,-1.5132,-1.5101,-1.5091,-1.5022,-1.4985,-1.4995,-1.4942,-1.4886,-1.4834,-1.4812,-1.4803,-1.4829,-1.4779,-1.4784,-1.4789,-1.489,-1.4907,-1.492,0,0,0,0,0,0,-1.5334,-1.5239,-1.5199,-1.5205,-1.5162,-1.5082,-1.5092,-1.5042,-1.5008,-1.5,-1.4915,-1.49,-1.4901,-1.4864,-1.4841,-1.4853,-1.4798,-1.4802,-1.4878,-1.4893,-1.4905,-1.4915,-1.4753,0,0,0,0,0,-1.5359,-1.5343,-1.5261,-1.5274,-1.5255,-1.5178,-1.5162,-1.5113,-1.5064,-1.5045,-1.4991,-1.4947,-1.492,-1.4904,-1.4875,-1.4889,-1.4871,-1.4903,-1.4915,-1.4926,-1.493,-1.4935,-1.4948,-1.4809,-1.4809,-1.4809,0,0,-1.5412,-1.5358,-1.5353,-1.5296,-1.5256,-1.5241,-1.5163,-1.515,-1.5138,-1.5043,-1.5032,-1.4991,-1.4935,-1.4938,-1.4937,-1.4907,-1.4964,-1.4933,-1.4942,-1.494,-1.4942,-1.4955,-1.4967,-1.4813,-1.4812,-1.4812,0,0,-1.5501,-1.5459,-1.5465,-1.5428,-1.5369,-1.5318,-1.532,-1.5246,-1.5215,-1.5203,-1.5132,-1.5115,-1.5071,-1.5034,-1.501,-1.5084,-1.5031,-1.5077,-1.5143,-1.5148,-1.5159,-1.5169,-1.5196,-1.5206,-1.5082,-1.5082,-1.5082,0,-1.5574,-1.5549,-1.5475,-1.5466,-1.5443,-1.5357,-1.5362,-1.5329,-1.5264,-1.525,-1.5217,-1.516,-1.5116,-1.511,-1.5128,-1.5111,-1.511,-1.5086,-1.5164,-1.5172,-1.518,-1.5205,-1.5215,-1.5088,-1.5087,-1.5087,-1.5086,0,-1.5642,-1.5625,-1.5637,-1.5578,-1.5555,-1.5554,-1.5479,-1.5465,-1.5418,-1.537,-1.5358,-1.5302,-1.5261,-1.5255,-1.5208,-1.5242,-1.5225,-1.518,-1.5123,-1.52,-1.5222,-1.5231,-1.5096,-1.5094,-1.5093,-1.5091,0,0,-1.58,-1.5699,-1.5704,-1.5676,-1.5605,-1.5591,-1.5585,-1.5544,-1.5534,-1.5492,-1.5486,-1.545,-1.5407,-1.538,-1.5328,-1.5333,-1.5396,-1.5286,-1.5283,-1.5309,-1.5429,-1.5465,-1.5477,-1.536,-1.5361,-1.5362,-1.5434,0,-1.5877,-1.5863,-1.5796,-1.5801,-1.5785,-1.5702,-1.5697,-1.5653,-1.5607,-1.5586,-1.5536,-1.5512,-1.5457,-1.544,-1.5441,-1.5388,-1.5419,-1.5382,-1.5353,-1.5352,-1.537,-1.5488,-1.5525,-1.5596,-1.5442,-1.5443,-1.5444,0,-1.5965,-1.5929,-1.5934,-1.5863,-1.5853,-1.585,-1.5808,-1.5789,-1.5736,-1.5703,-1.5672,-1.5614,-1.5603,-1.555,-1.5533,-1.551,-1.5493,-1.5465,-1.5466,-1.5462,-1.5404,-1.5487,-1.5617,-1.5628,-1.5457,-1.5456,-1.5455,0,-1.6081,-1.6033,-1.6029,-1.6008,-1.5925,-1.5925,-1.589,-1.5836,-1.5815,-1.5778,-1.5764,-1.5725,-1.5704,-1.5676,-1.5609,-1.5576,-1.56,-1.5541,-1.5572,-1.5574,-1.5582,-1.5582,-1.5711,-1.557,-1.557,-1.557,-1.557,0,-1.6175,-1.6181,-1.608,-1.6078,-1.6082,-1.6004,-1.601,-1.5967,-1.592,-1.5907,-1.5833,-1.5823,-1.5734,-1.5714,-1.5661,-1.5656,-1.5647,-1.5619,-1.5605,-1.5627,-1.563,-1.5616,-1.5609,-1.5573,-1.5572,-1.5571,-1.5571,0,-1.6305,-1.6238,-1.6229,-1.6151,-1.6131,-1.6138,-1.6071,-1.6065,-1.6015,-1.6001,-1.5993,-1.5914,-1.5886,-1.5816,-1.577,-1.5734,-1.5743,-1.5717,-1.5761,-1.5753,-1.5788,-1.5786,-1.5913,-1.5926,-1.5777,-1.5778,-1.5779,0,-1.637,-1.6372,-1.6295,-1.6282,-1.625,-1.623,-1.6209,-1.6132,-1.6113,-1.6054,-1.6055,-1.6022,-1.5991,-1.595,-1.5888,-1.5853,-1.5825,-1.5872,-1.5819,-1.5841,-1.5827,-1.5828,-1.5828,-1.5884,-1.5886,-1.5888,-1.5889,0,-1.6492,-1.6458,-1.6432,-1.6393,-1.6371,-1.6336,-1.6298,-1.6291,-1.6205,-1.6187,-1.6158,-1.6134,-1.6087,-1.6054,-1.6009,-1.5972,-1.5917,-1.5906,-1.5911,-1.5934,-1.596,-1.5947,-1.5794,-1.5904,-1.5902,-1.5901,-1.59,-1.59,-1.6591,-1.659,-1.6535,-1.6508,-1.6471,-1.6437,-1.6428,-1.6377,-1.6351,-1.6307,-1.6263,-1.6239,-1.6185,-1.6119,-1.6086,-1.6065,-1.6036,-1.6044,-1.6046,-1.605,-1.606,-1.5962,-1.6057,-1.6056,-1.6056,-1.6055,-1.6055,0,-1.671,-1.6671,-1.6646,-1.6595,-1.6574,-1.6523,-1.6478,-1.6463,-1.6443,-1.6398,-1.6369,-1.6336,-1.6304,-1.6239,-1.6201,-1.6197,-1.6171,-1.619,-1.619,-1.6183,-1.6087,-1.6087,-1.6212,-1.6212,-1.6212,-1.6212,-1.6212,-1.6212,-1.677,-1.6765,-1.6725,-1.6701,-1.6661,-1.6637,-1.6616,-1.6584,-1.6547,-1.6514,-1.6487,-1.6445,-1.6393,-1.635,-1.6319,-1.63,-1.629,-1.6318,-1.6292,-1.6204,-1.6189,-1.6175,-1.6174,-1.6316,-1.6316,-1.6389,-1.639,-1.639]},{"header":{"parameterUnit":"m.s-1","parameterCategory":1,"la1":30.2991,"la2":30.254,"lo1":-89.0895,"lo2":-89.0444,"dx":0.0017,"dy":0.0017,"nx":28,"ny":28,"refTime":"2023-01-23T03:00:00:Z","depth":0,"parameterNumber":3,"parameterNumberName":"V-component_of_WINDS"},"data":[0,0,0,0,0,0,0,0,0,0,0,0,0,0,0,0,0,0,0,0,0,0,0,0,0,0,0,0,0,0,0,0,0,0,0,0,0,0,0,0,0,0,0,0,0,0,0,0,0,0,0,0,0,0,0,0,0,0,-2.3177,-2.3178,0,-2.3258,-2.3258,-2.3259,-2.328,-2.3279,-2.3279,-2.3278,-2.3357,-2.336,-2.3362,0,0,0,0,0,0,0,0,0,0,0,0,0,-2.3037,-2.3039,-2.3177,-2.3178,-2.3179,-2.3257,-2.3259,-2.326,-2.328,-2.3279,-2.3279,-2.3278,-2.3356,-2.3359,-2.3363,0,0,0,0,0,0,0,0,0,0,0,0,0,-2.3106,-2.304,-2.3176,-2.3198,-2.3201,-2.3257,-2.3259,-2.326,-2.328,-2.3279,-2.3279,-2.3278,-2.3355,-2.3359,-2.3363,-2.3402,0,0,-2.3375,-2.3376,0,0,0,0,0,0,0,0,-2.3102,-2.3111,-2.3194,-2.3197,-2.32,-2.3258,-2.3238,-2.3307,-2.328,-2.325,-2.3278,-2.3278,-2.3325,-2.3331,-2.3348,-2.3405,-2.3409,-2.3375,-2.3377,-2.3379,-2.338,0,0,0,0,0,0,0,-2.3097,-2.3107,-2.3209,-2.3195,-2.3199,-2.3203,-2.3212,-2.3251,-2.329,-2.3253,-2.3254,-2.3264,-2.3326,-2.3344,-2.335,-2.341,-2.3375,-2.3378,-2.3381,-2.3382,-2.3505,-2.3506,0,0,0,0,0,0,-2.3089,-2.3103,-2.3206,-2.3211,-2.3148,-2.3206,-2.3216,-2.324,-2.329,-2.3297,-2.3264,-2.3264,-2.3338,-2.3345,-2.3352,-2.3403,-2.3379,-2.3383,-2.3385,-2.3504,-2.3505,-2.3506,0,0,0,0,0,0,-2.3086,-2.3098,-2.3203,-2.3158,-2.3171,-2.321,-2.3236,-2.3242,-2.326,-2.3299,-2.3306,-2.3276,-2.3337,-2.3347,-2.339,-2.3406,-2.3384,-2.3388,-2.3503,-2.3505,-2.3506,-2.3503,0,0,0,0,0,0,-2.3082,-2.3097,-2.3112,-2.3158,-2.3174,-2.324,-2.3237,-2.3244,-2.3267,-2.3268,-2.3311,-2.3318,-2.3338,-2.3384,-2.3394,-2.3411,-2.3391,-2.3502,-2.3504,-2.3505,-2.3502,-2.3504,-2.3506,0,0,0,0,0,-2.3077,-2.3107,-2.3113,-2.3125,-2.3194,-2.3241,-2.325,-2.3273,-2.3268,-2.3284,-2.3309,-2.3316,-2.3402,-2.3388,-2.3399,-2.3418,-2.3501,-2.3503,-2.3505,-2.3501,-2.3503,-2.3506,0,0,0,0,0,0,-2.306,-2.3113,-2.3121,-2.3167,-2.3199,-2.3244,-2.3265,-2.3275,-2.3308,-2.3307,-2.3334,-2.3343,-2.3385,-2.3405,-2.3389,-2.3459,-2.3451,-2.3456,-2.3444,-2.3447,-2.3449,-2.3444,-2.3394,0,0,0,0,0,-2.3062,-2.3097,-2.314,-2.3177,-2.3193,-2.3226,-2.3247,-2.3262,-2.3297,-2.331,-2.3338,-2.337,-2.3405,-2.3427,-2.346,-2.3504,-2.3514,-2.3522,-2.3524,-2.3526,-2.353,-2.3556,-2.3561,-2.3514,-2.3514,-2.3513,0,0,-2.3066,-2.3099,-2.3119,-2.3174,-2.3201,-2.3236,-2.3237,-2.3273,-2.3299,-2.3315,-2.3359,-2.338,-2.3417,-2.3462,-2.3482,-2.348,-2.3545,-2.3528,-2.3529,-2.3533,-2.3559,-2.3563,-2.3567,-2.3515,-2.3515,-2.3514,0,0,-2.3092,-2.312,-2.3154,-2.3182,-2.3224,-2.3246,-2.3254,-2.3298,-2.3314,-2.3358,-2.3371,-2.3401,-2.3459,-2.3486,-2.3507,-2.3544,-2.3553,-2.3554,-2.3566,-2.3591,-2.3595,-2.3598,-2.3613,-2.3618,-2.3558,-2.3558,-2.3558,0,-2.3091,-2.3145,-2.317,-2.3207,-2.3231,-2.3249,-2.3284,-2.3309,-2.3358,-2.3374,-2.3371,-2.3446,-2.3472,-2.3524,-2.3533,-2.3549,-2.356,-2.355,-2.3592,-2.3596,-2.36,-2.3614,-2.362,-2.3558,-2.3558,-2.3558,-2.3558,0,-2.3143,-2.318,-2.3203,-2.3253,-2.328,-2.3315,-2.3345,-2.3369,-2.3382,-2.3404,-2.3449,-2.3481,-2.3523,-2.3536,-2.3547,-2.3589,-2.3587,-2.3587,-2.3581,-2.3604,-2.3618,-2.3624,-2.3558,-2.3558,-2.3558,-2.3558,0,0,-2.3161,-2.3226,-2.3234,-2.3258,-2.3306,-2.3334,-2.337,-2.3413,-2.3433,-2.3466,-2.3498,-2.3547,-2.3549,-2.3573,-2.3588,-2.361,-2.364,-2.3609,-2.361,-2.3615,-2.369,-2.3691,-2.3696,-2.3645,-2.3646,-2.3647,-2.3687,0,-2.3194,-2.3261,-2.3286,-2.3341,-2.3376,-2.3393,-2.3425,-2.3457,-2.3479,-2.3511,-2.3534,-2.357,-2.3569,-2.3584,-2.3606,-2.3632,-2.3656,-2.3629,-2.3675,-2.3676,-2.3667,-2.3704,-2.3704,-2.3741,-2.3693,-2.3694,-2.3694,0,-2.3242,-2.3279,-2.3338,-2.3383,-2.3399,-2.3427,-2.3469,-2.3499,-2.3536,-2.355,-2.3578,-2.3592,-2.363,-2.362,-2.3674,-2.3655,-2.3675,-2.369,-2.3692,-2.3699,-2.3688,-2.3713,-2.3753,-2.3759,-2.3703,-2.3702,-2.3702,0,-2.3251,-2.3315,-2.336,-2.3379,-2.3432,-2.3452,-2.3475,-2.3511,-2.3536,-2.3571,-2.3587,-2.3626,-2.3647,-2.3677,-2.3701,-2.3691,-2.3753,-2.3744,-2.3766,-2.3766,-2.3779,-2.3778,-2.3825,-2.3789,-2.3789,-2.3789,-2.3789,0,-2.3287,-2.3322,-2.3365,-2.3392,-2.3433,-2.346,-2.35,-2.3523,-2.3556,-2.3588,-2.3604,-2.3633,-2.3663,-2.3696,-2.3714,-2.3757,-2.3765,-2.3778,-2.3783,-2.3778,-2.3777,-2.3793,-2.3792,-2.379,-2.379,-2.379,-2.3789,0,-2.3305,-2.3334,-2.3385,-2.3432,-2.3444,-2.3472,-2.3512,-2.3539,-2.3562,-2.3602,-2.3613,-2.3648,-2.3688,-2.3715,-2.3765,-2.3778,-2.3824,-2.3828,-2.3813,-2.3816,-2.3836,-2.3835,-2.3896,-2.3906,-2.3862,-2.3862,-2.3862,0,-2.3326,-2.3355,-2.3406,-2.3429,-2.3453,-2.349,-2.3516,-2.3543,-2.3569,-2.3614,-2.3636,-2.3677,-2.3712,-2.3775,-2.3804,-2.3843,-2.3849,-2.3868,-2.3855,-2.3849,-2.3851,-2.385,-2.3854,-2.387,-2.387,-2.3871,-2.3871,0,-2.3362,-2.3376,-2.3413,-2.3456,-2.3487,-2.3521,-2.3556,-2.3574,-2.3607,-2.3635,-2.3677,-2.3704,-2.3757,-2.3798,-2.384,-2.3862,-2.3873,-2.3875,-2.3882,-2.3878,-2.3869,-2.3876,-2.382,-2.3873,-2.3873,-2.3873,-2.3873,-2.3873,-2.3384,-2.3411,-2.3452,-2.3493,-2.3523,-2.3555,-2.3583,-2.3611,-2.3647,-2.3693,-2.3706,-2.3751,-2.3788,-2.3845,-2.3869,-2.3903,-2.3901,-2.3911,-2.3914,-2.3917,-2.3918,-2.3862,-2.391,-2.391,-2.391,-2.391,-2.391,0,-2.3422,-2.345,-2.3488,-2.3537,-2.357,-2.3577,-2.3616,-2.3643,-2.3682,-2.3716,-2.3751,-2.38,-2.384,-2.3873,-2.3915,-2.3936,-2.3942,-2.3946,-2.3946,-2.3951,-2.3916,-2.3907,-2.3941,-2.3941,-2.3941,-2.3941,-2.3941,-2.3941,-2.3446,-2.3494,-2.3512,-2.3574,-2.3601,-2.3646,-2.3668,-2.3698,-2.3726,-2.378,-2.3815,-2.3837,-2.3871,-2.3915,-2.3952,-2.3961,-2.3976,-2.398,-2.399,-2.3957,-2.3953,-2.395,-2.3942,-2.3983,-2.3983,-2.4022,-2.4022,-2.4023]}]]